Regional Weather Roundup
Issued by NWS Newport/Morehead, NC

Current Version | Previous Version | Text Only | Print | Product List | Glossary On
Versions: 1 2 3 4 5 6 7 8 9 10 11 12 13 14 15 16 17 18 19 20 21 22 23 24 25 26 27 28 29 30 31 32 33 34 35 36 37 38 39 40 41 42 43 44 45 46 47 48 49 50
000 ASUS42 KMHX 011613 RWRMHX WEATHER ROUNDUP FOR EASTERN NORTH CAROLINA NATIONAL WEATHER SERVICE NEWPORT/MOREHEAD CITY NC 1100 AM EST WED MAR 01 2017 NOTE: "FAIR" INDICATES FEW OR NO CLOUDS BELOW 12,000 FEET WITH NO SIGNIFICANT WEATHER AND/OR OBSTRUCTIONS TO VISIBILITY NCZ015>017-031-032-045>047-102-103-011700- NORTH COAST CITY SKY/WX TMP DP RH WIND PRES REMARKS EDENTON CLOUDY 76 65 70 SW21G32 29.95F ELIZABETH CITY CLOUDY 73 65 75 S20G28 29.94F KITTY HAWK NOT AVBL MANTEO CLOUDY 70 64 81 SW22G32 29.98F $$ NCZ045>047-081-094-103-104-011700- CENTRAL COAST CITY SKY/WX TMP DP RH WIND PRES REMARKS FRISCO PTSUNNY 74 65 73 SW17G26 30.04F HAZE $$ NCZ095-097-098-100-101-011700- SOUTHERN COAST CITY SKY/WX TMP DP RH WIND PRES REMARKS BEAUFORT PTSUNNY 72 66 81 S22G29 30.04F CEDAR ISLAND NOT AVBL JACKSONVILLE CLOUDY 74 67 78 S13G29 30.03F PINEY ISLAND CLOUDY N/A N/A N/A SW23G37 30.02F WILMINGTON CLOUDY 74 67 78 SW22G40 30.05F $$ NCZ011>013-027>030-043-044-078>080-089-090>093-098-011700- COASTAL PLAIN CITY SKY/WX TMP DP RH WIND PRES REMARKS AHOSKIE NOT AVBL CLINTON PTSUNNY 78 65 64 SW15G21 30.00F ELIZABETHTOWN MOSUNNY 78 64 61 SW13G23 30.02F GOLDSBORO CLOUDY 77 64 64 SW17G32 29.95F GREENVILLE CLOUDY 77 64 65 SW24G33 29.97F HAVELOCK NOT AVBL KENANSVILLE PTSUNNY 79 63 57 SW16G29 30.00F KINSTON PTSUNNY 79 63 57 MISG 29.99F NEW BERN CLOUDY 75 67 76 SW17G31 30.02F RICHLANDS CLOUDY 76 66 71 S23G32 30.02F ROCKY MOUNT CLOUDY 75 63 66 SW23G32 29.94F WASHINGTON PTSUNNY 75 65 71 SW21G28 29.97F WHITEVILLE MOSUNNY 78 64 61 SW17G26 30.04F $$ AMZ130-135-150-152-154-156-158-170-250-252-270-ANZ085-086-088-633-658-670-011700- MARINE OBSERVATIONS STATION/POSITION TIME TEMP WIND PRES WAVE SWELL AIR SEA DIR/SP/G HT/PER HT/PER (UTC) (F) (DEG/KT/KT) (MB) (FT/S) (FT/S) CHESAPEAKE LIGHT NOT AVBL 64 E VA BEACH 1550 58 51 200/ 23/ 25 1013.5 6/ 7 2/11 DUCK 1548 70 48 200/ 20/ 26 1013.4 2 E DUCK 1530 50 N/A 3/ 7 OREGON INLET 1548 200/ 22/ 25 N/A 13E OREGON INLT NOT AVBL HATTERAS CG 1548 72 65 210/ 16/ 21 1016.8 DIAMOND BUOY 1450 72 74 210/ 23/ 29 1017.9 9/ 7 2/15 CAPE LOOKOUT 1600 71 200/ 17/ 22 1017.4 BEAUFORT LAB 1548 69 63 200/ 17/ 24 1016.4 30 SE NEW RVR IN 1508 68 210/ 14/ 17 1019.0 30 SE NEW RVR IN 1543 65 N/A 6/ 6 27 SE WRIGHTSVLE 1508 68 62 190/ 14/ 19 1018.6 5 SE WRIGHTSVLE 1508 62 59 230/ 10/ 16 1018.8 225 S CAPE HAT 1550 71 71 160/ 14/ 16 1022.8 4/ 7 2/ 8 41 SE CHARLESTON 1550 72 69 220/ 17/ 21 1019.1 4/ 6 2/ 8 $$

USA.gov is the U.S. government's official web portal to all federal, state and local government web resources and services.